Weather History for Pompano Beach, FL

Change the Weather History Date:

Monday, July 1, 2013

  Actual Average Record
Temperature  
Mean Temperature 84 °F -  
Max Temperature 88 °F 90 °F 96 °F (1979)
Min Temperature 80 °F 73 °F 66 °F (1977)
Cooling Degree Days 19    
Growing Degree Days 34 (Base 50)    
Moisture  
Dew Point 77 °F    
Average Humidity 83    
Maximum Humidity 91    
Minimum Humidity 70    
Precipitation  
Precipitation 0.00 in - - ()
Sea Level Pressure  
Sea Level Pressure 29.99 in    
Wind  
Wind Speed 9 mph (SSE)    
Max Wind Speed 17 mph    
Max Gust Speed 25 mph    
Visibility 10 miles    
Events Thunderstorm    
Averages and records for this station are not official NWS values.
T = Trace of Precipitation, MM = Missing Value Source: NWS Daily Summary

Daily Weather History Graph

Daily Weather History Graph

Search for Another Location

Airport:

Trip Planner

Search our weather history database for the weather conditions in past years. The results will help you decide how hot, cold, wet, or windy it might be!

Date:

Astronomy

Jul. 01, 2013 Rise Set
Actual Time 6:31 AM EDT 8:16 PM EDT
Civil Twilight 6:05 AM EDT 8:43 PM EDT
Nautical Twilight 5:34 AM EDT 9:14 PM EDT
Astronomical Twilight 5:01 AM EDT 9:47 PM EDT
Moon 1:39 AM EDT (7/1) 2:48 PM EDT (7/1)
Length of Visible Light 14h 37m
Length of Day
13h 45m
Waning Crescent, 35% of the Moon is Illuminated
Jul 1
Waning Crescent
Jul 8
New
Jul 15
First Quarter
Jul 22
Full
Jul 29
Last Quarter

Hourly Weather History & Observations

Time (EDT) Temp. Heat Index Dew Point Humidity Pressure Visibility Wind Dir Wind Speed Gust Speed Precip Events Conditions
12:53 AM 80.1 °F 85.8 °F 77.0 °F 90% 29.98 in 10.0 mi SSW 5.8 mph - N/A   Overcast
1:53 AM 80.1 °F 85.8 °F 77.0 °F 90% 29.96 in 10.0 mi South 3.5 mph - N/A   Mostly Cloudy
2:53 AM 80.1 °F 85.4 °F 75.9 °F 87% 29.94 in 10.0 mi South 8.1 mph - N/A   Clear
3:53 AM 81.0 °F 87.3 °F 75.9 °F 85% 29.94 in 10.0 mi South 6.9 mph - N/A   Mostly Cloudy
4:53 AM 82.0 °F 90.2 °F 77.0 °F 85% 29.94 in 10.0 mi SSE 10.4 mph - N/A   Clear
5:53 AM 81.0 °F 88.6 °F 78.1 °F 91% 29.94 in 10.0 mi South 9.2 mph - N/A   Partly Cloudy
6:53 AM 81.0 °F 87.3 °F 75.9 °F 85% 29.97 in 10.0 mi SSE 10.4 mph - N/A   Partly Cloudy
7:53 AM 82.0 °F 91.0 °F 78.1 °F 88% 29.98 in 10.0 mi SSE 10.4 mph - N/A   Mostly Cloudy
8:12 AM 82.4 °F 92.4 °F 78.8 °F 89% 29.98 in 10.0 mi SSE 16.1 mph 21.9 mph N/A   Mostly Cloudy
8:27 AM 82.4 °F 92.4 °F 78.8 °F 89% 29.98 in 10.0 mi SSE 13.8 mph - N/A   Scattered Clouds
8:53 AM 82.9 °F 92.8 °F 78.1 °F 85% 29.99 in 10.0 mi SSE 13.8 mph 20.7 mph N/A   Clear
9:53 AM 84.9 °F 95.3 °F 77.0 °F 77% 29.98 in 10.0 mi SSE 13.8 mph 21.9 mph N/A   Partly Cloudy
10:53 AM 84.9 °F 95.3 °F 77.0 °F 77% 29.99 in 10.0 mi SSE 17.3 mph 24.2 mph N/A   Mostly Cloudy
11:53 AM 84.9 °F 96.6 °F 78.1 °F 80% 29.99 in 10.0 mi SSE 11.5 mph 19.6 mph N/A   Scattered Clouds
12:53 PM 88.0 °F 100.2 °F 77.0 °F 70% 30.00 in 10.0 mi SSE 13.8 mph 25.3 mph N/A   Scattered Clouds
1:53 PM 86.0 °F 98.3 °F 78.1 °F 77% 29.99 in 10.0 mi SSE 13.8 mph 25.3 mph N/A   Mostly Cloudy
2:53 PM 87.1 °F 101.5 °F 79.0 °F 77% 29.97 in 10.0 mi SE 15.0 mph 23.0 mph N/A   Overcast
3:53 PM 84.9 °F 96.6 °F 78.1 °F 80% 29.96 in 10.0 mi SSE 12.7 mph 19.6 mph N/A   Clear
4:53 PM 84.0 °F 93.7 °F 77.0 °F 79% 29.97 in 10.0 mi SSE 16.1 mph - N/A   Scattered Clouds
5:53 PM 84.0 °F 93.7 °F 77.0 °F 79% 30.00 in 10.0 mi SSE 13.8 mph - N/A   Partly Cloudy
6:53 PM 84.0 °F 93.7 °F 77.0 °F 79% 30.00 in 10.0 mi SSE 6.9 mph - 0.00 in   Partly Cloudy
7:01 PM 84.2 °F 94.1 °F 77.0 °F 79% 29.99 in 10.0 mi South 8.1 mph - N/A Thunderstorm Clear
7:15 PM 84.2 °F 94.1 °F 77.0 °F 79% 30.01 in 10.0 mi West 4.6 mph - N/A   Mostly Cloudy
7:53 PM 84.0 °F 93.7 °F 77.0 °F 79% 30.01 in 10.0 mi Variable 3.5 mph - N/A   Mostly Cloudy
8:53 PM - - - N/A% 30.02 in 10.0 mi West 5.8 mph - N/A   Partly Cloudy
9:53 PM 80.1 °F 85.1 °F 75.0 °F 85% 30.04 in 10.0 mi Calm Calm - N/A   Mostly Cloudy
10:53 PM 80.1 °F 85.1 °F 75.0 °F 85% 30.05 in 10.0 mi Calm Calm - N/A   Partly Cloudy
11:53 PM 80.1 °F 85.1 °F 75.0 °F 85% 30.05 in 10.0 mi Calm Calm - N/A   Partly Cloudy